Location: Unspecified
(0.0000°N, 0.0000°E)
Time: 19:08:44
(UTC+00:00)

Vanguard 3 - All Passes

Search period start: 23 June 2017 00:00
Search period end: 03 July 2017 00:00
Orbit: 507 x 3266 km, 33.4° (Epoch: 22 June)

Date Brightness Start Highest point End Pass type
(mag) Time Alt. Az. Time Alt. Az. Time Alt. Az.
23 Jun - 01:47:23 10° WNW 01:54:50 40° SW 01:59:28 10° SSE night (unlit)
23 Jun - 10:44:56 10° SSW 10:52:09 32° SE 11:03:40 10° E daylight
23 Jun - 12:55:03 10° WSW 13:05:48 81° NW 13:24:05 10° NE daylight
23 Jun - 15:09:54 10° W 15:23:17 37° NNW 15:40:42 10° NE daylight
23 Jun - 17:32:25 10° NW 17:44:41 19° NNW 17:56:45 10° NNE daylight
23 Jun - 19:57:08 10° NNW 20:07:36 17° N 20:16:07 10° NE visible
23 Jun - 22:14:35 10° NNW 22:26:41 30° NNE 22:34:24 10° E visible
24 Jun - 00:30:38 10° NW 00:41:20 89° SSW 00:47:10 10° SE visible
24 Jun - 02:50:51 10° WSW 02:52:37 11° SW 02:54:12 10° SSW night (unlit)
24 Jun - 09:34:32 10° SSE 09:38:07 14° SE 09:42:33 10° ESE daylight
24 Jun - 11:41:52 10° SW 11:50:37 66° SE 12:06:17 10° ENE daylight
24 Jun - 13:54:15 10° WSW 14:06:04 50° NNW 14:24:09 10° NE daylight
24 Jun - 16:12:47 10° WNW 16:25:42 24° NNW 16:40:19 10° NNE daylight
24 Jun - 18:37:47 10° NW 18:48:46 17° N 18:58:38 10° NE visible
24 Jun - 20:57:47 10° NNW 21:10:08 24° NNE 21:18:58 10° ENE visible
24 Jun - 23:14:01 10° NW 23:26:53 55° NNE 23:34:02 10° ESE visible
25 Jun - 01:31:40 10° WNW 01:39:24 33° SW 01:44:15 10° SSE night (unlit)
25 Jun - 10:29:35 10° SSW 10:36:23 36° SE 10:47:39 10° ENE daylight
25 Jun - 12:39:57 10° WSW 12:49:53 70° NNW 13:07:09 10° NE daylight
25 Jun - 14:55:12 10° W 15:07:31 32° NNW 15:23:47 10° NNE daylight
25 Jun - 17:17:41 10° NW 17:29:22 18° N 17:41:05 10° NNE daylight
25 Jun - 19:40:17 10° NNW 19:52:25 20° N 20:02:10 10° NE visible
25 Jun - 21:57:22 10° NW 22:11:22 38° NNE 22:19:58 10° E visible
26 Jun - 00:14:13 10° WNW 00:25:51 73° SW 00:32:11 10° SE visible
26 Jun - 09:18:49 10° S 09:22:39 15° SE 09:27:35 10° ESE daylight
26 Jun - 11:26:41 10° SW 11:34:47 77° SE 11:49:39 10° ENE daylight
26 Jun - 13:39:25 10° W 13:50:18 42° NNW 14:07:04 10° NE daylight
26 Jun - 15:58:22 10° WNW 16:10:13 22° NNW 16:23:49 10° NNE daylight
26 Jun - 18:21:55 10° NNW 18:33:35 18° N 18:44:10 10° NE visible
26 Jun - 20:40:33 10° NNW 20:54:47 28° NNE 21:04:45 10° ENE visible
26 Jun - 22:57:08 10° NW 23:11:25 68° NNE 23:19:14 10° ESE visible
27 Jun - 01:15:57 10° W 01:23:53 28° SW 01:28:58 10° SSE night (unlit)
27 Jun - 10:14:18 10° SSW 10:20:42 41° SE 10:31:36 10° ENE daylight
27 Jun - 12:25:01 10° WSW 12:34:09 59° NNW 12:50:09 10° NE daylight
27 Jun - 14:40:44 10° WNW 14:51:55 27° NNW 15:06:48 10° NNE daylight
27 Jun - 17:02:53 10° NW 17:14:07 18° N 17:25:36 10° NNE daylight
27 Jun - 19:23:25 10° NNW 19:37:06 23° NNE 19:48:03 10° ENE visible
27 Jun - 21:40:12 10° NW 21:55:54 46° NNE 22:05:21 10° E visible
27 Jun - 23:57:49 10° WNW 00:10:16 61° SW 00:17:05 10° SE visible
28 Jun - 09:03:13 10° S 09:07:10 17° SE 09:12:29 10° E daylight
28 Jun - 11:11:37 10° SW 11:19:05 90° SE 11:32:59 10° NE daylight
28 Jun - 13:24:47 10° W 13:34:43 35° NNW 13:49:55 10° NE daylight
28 Jun - 15:44:05 10° NW 15:54:52 19° N 16:07:21 10° NNE daylight
28 Jun - 18:05:54 10° NNW 18:18:20 19° N 18:29:44 10° NE visible
28 Jun - 20:23:22 10° NW 20:39:18 34° NNE 20:50:19 10° E visible
28 Jun - 22:40:16 10° NW 22:55:48 81° NE 23:04:17 10° ESE visible
29 Jun - 01:00:19 10° W 01:08:19 25° SW 01:13:37 10° S night (unlit)
29 Jun - 09:59:06 10° SSW 10:05:04 49° SE 10:15:29 10° ENE daylight
29 Jun - 12:10:12 10° W 12:18:35 49° NNW 12:33:06 10° NE daylight
29 Jun - 14:26:28 10° WNW 14:36:30 23° NNW 14:49:45 10° NNE daylight
29 Jun - 16:47:57 10° NW 16:58:55 17° N 17:10:17 10° NE daylight
29 Jun - 19:06:35 10° NNW 19:21:38 26° NNE 19:33:44 10° ENE visible
29 Jun - 21:23:07 10° NW 21:40:14 55° NNE 21:50:33 10° ESE visible
29 Jun - 23:41:27 10° WNW 23:54:32 52° SW 00:01:55 10° SE visible
30 Jun - 08:47:43 10° S 08:51:42 20° SE 08:57:16 10° E daylight
30 Jun - 10:56:41 10° WSW 11:03:33 75° NNW 11:16:17 10° NE daylight
30 Jun - 13:10:22 10° WNW 13:19:18 29° NNW 13:32:41 10° NNE daylight
30 Jun - 15:29:53 10° NW 15:39:38 18° N 15:50:57 10° NNE daylight
30 Jun - 17:49:46 10° NNW 18:02:59 21° NNE 18:15:17 10° NE daylight
30 Jun - 20:06:17 10° NW 20:23:37 40° NNE 20:35:39 10° E visible
30 Jun - 22:23:27 10° NW 22:40:00 87° SW 22:49:12 10° SE visible
01 Jul - 00:44:45 10° W 00:52:43 22° SW 00:58:12 10° S night (unlit)
01 Jul - 09:44:00 10° SW 09:49:33 59° SE 09:59:21 10° ENE daylight
01 Jul - 11:55:36 10° W 12:03:12 39° NNW 12:16:00 10° NE daylight
01 Jul - 14:12:27 10° NW 14:21:15 19° NNW 14:32:38 10° NNE daylight
01 Jul - 16:32:50 10° NNW 16:43:42 18° N 16:55:10 10° NE daylight
01 Jul - 18:49:48 10° NNW 19:05:59 30° NNE 19:19:11 10° ENE visible
01 Jul - 21:06:04 10° NW 21:24:24 65° NNE 21:35:34 10° ESE visible
01 Jul - 23:25:08 10° WNW 23:38:44 45° SW 23:46:40 10° SSE visible
02 Jul - 08:32:18 10° SSW 08:36:17 24° SE 08:41:57 10° E daylight
02 Jul - 10:41:52 10° WSW 10:48:09 60° NNW 10:59:34 10° NE daylight
02 Jul - 12:56:12 10° WNW 13:04:03 24° NNW 13:15:23 10° NNE daylight
02 Jul - 15:15:44 10° NNW 15:24:30 16° N 15:34:41 10° NNE daylight
02 Jul - 17:33:34 10° NNW 17:47:30 23° NNE 18:00:44 10° ENE daylight
02 Jul - 19:49:17 10° NW 20:07:44 46° NNE 20:20:47 10° E visible
02 Jul - 22:06:41 10° WNW 22:24:03 76° SW 22:34:01 10° SE visible
